Reflectivity
-20 -20 -20 -20 -20 -20 -20 -20 -7 11 3 14 17 20 5 17 28 26 18 18 24 -2 -20 -3 -14 -20 -20 -20 -20 -20 -20 -20 -20 -20 -20 -20 -20 -20 -20 -20 -20 -20 -20 -20 -10 -20 -20 -18 -14 -5 -20 -20 -20 -18
0 6 -6 -6 -12 -20 -20 -20 -20 -20 -20 -17 15 2 26 20 19 31 24 20 23 31 -0 -12 -15 -20 -12 -20 -20 -20 -20 -20 -20 -20 -20 -20 -20 -20 -20 -20 -20 -20 -20 -20 -20 -20 -20 -19 -20 -20 -20 -20 -20 -20
-3 9 -3 15 11 12 10 10 6 6 -18 -20 -20 -20 0 -15 28 31 29 16 29 23 14 -15 -11 6 2 -18 -16 -20 -20 -3 -6 -20 -20 -20 -20 -20 -20 -20 -20 -20 -20 -20 -20 -14 -19 -6 -11 -20 -20 -20 -20 -20
15 15 16 13 12 10 8 11 13 11 11 11 11 -0 0 -20 -0 32 35 26 20 28 11 -5 -20 -20 -20 -20 -17 -3 -7 -3 4 -0 8 -16 -20 -20 -20 -20 -20 -20 -20 -20 -20 -20 -4 -20 -20 -20 -20 -20 -20 -20
7 11 9 9 11 9 -4 4 -3 -2 5 8 5 -20 4 -9 -18 -20 13 30 35 22 25 -15 -20 -20 -20 -20 -12 5 -10 -5 -12 -11 -4 -12 -11 1 -2 -20 -20 11 8 3 -17 -20 -20 -20 -20 -20 -20 -20 -20 -20
5 -19 11 -20 -16 -20 12 4 -4 6 -14 12 14 -1 12 -20 -5 -16 -18 1 19 39 29 27 -3 -20 -20 -20 -20 -16 0 13 13 3 4 9 -10 11 10 -10 -20 13 10 1 -20 -20 -20 -20 -20 -20 -20 -20 -20 -20
12 12 11 11 13 12 15 8 12 4 4 14 15 7 13 16 -20 -1 -20 18 32 31 31 31 27 10 -20 -20 -20 -20 -17 -10 -14 3 1 -10 -2 16 9 -20 -6 -5 -20 -20 -20 -20 -20 -20 -20 -20 -20 -20 -20 -20
11 12 13 13 1 2 -10 -1 16 16 11 -16 10 11 -20 -20 -20 -18 -18 -13 18 28 25 26 25 1 -8 -20 -3 -8 -18 -13 -7 -14 -17 -20 -19 2 -20 -20 -20 -20 -20 -20 -20 -20 -20 -20 -20 -20 -20 -20 -20 -20
14 14 12 0 -14 5 16 14 2 19 20 13 -10 -20 -20 -20 -5 14 21 24 -14 -9 17 11 12 5 -19 -20 -10 11 -20 -20 -19 -20 -20 -20 -20 -20 -20 -20 -20 -20 -20 -20 -20 -20 -20 -20 -20 -20 -20 -20 -20 -20
8 8 -9 10 10 -20 -5 17 10 4 27 -4 -20 -20 -20 -5 20 23 28 6 13 5 -10 7 2 -20 0 17 19 22 19 10 -7 -20 -20 -20 -20 -20 -20 -20 -20 -20 -20 -20 -20 -20 -20 -20 -20 -20 -20 -20 -20 -20
8 -11 -19 -16 -20 2 9 0 18 22 33 -16 -20 -20 -20 8 9 -10 -17 -18 -8 -6 -9 -16 -20 -20 -5 11 11 10 18 16 11 -3 -20 -20 -20 -20 -20 -20 -20 -20 -20 -20 -20 -20 -20 -20 -20 -20 -20 -20 -20 -20
-16 11 10 11 12 6 -14 7 20 30 23 -17 -20 -6 -20 -20 -20 -20 -19 -20 -20 -20 -20 -20 -20 -20 -13 -0 11 6 7 8 -2 -14 -20 -20 -20 -20 -20 -20 -20 -20 -20 -20 -20 -20 -20 -20 -20 -20 -20 -20 -20 -20
-13 -11 -1 13 15 13 -20 19 25 27 10 4 -20 -20 -20 -20 -20 -20 -20 -20 -20 -20 -20 -7 -13 -9 4 5 5 5 4 -3 -20 -20 -20 -20 -20 -20 -20 -20 -20 -20 -20 -20 -20 -20 -20 -20 -20 -20 -20 -20 -20 -20
-13 -20 -10 -12 13 7 -20 19 26 25 29 3 -20 -20 -20 -20 -20 -20 -20 -20 -20 -20 -20 -17 7 7 -1 7 12 -9 -11 -20 -20 -20 -20 -20 -20 -20 -20 -20 -20 -20 -20 -20 -20 -20 -20 -20 -20 -20 -20 -20 -20 -20
-20 -20 -20 -2 11 -4 -20 31 25 34 17 -12 -20 -20 -20 -15 -20 -20 -20 -20 -20 4 9 1 -18 -4 -5 11 -18 -16 -20 -20 -20 -20 -20 -20 -20 -20 -20 -20 -20 -20 -20 -20 -20 -20 -20 -20 -20 -20 -20 -20 -20 -20
-20 -20 -20 -20 -16 -16 22 32 25 34 22 -18 -20 -20 -9 -20 -20 -20 -20 -20 -20 -20 -17 -19 -20 -19 -18 4 -18 -20 -20 -20 -20 -9 -8 -7 -11 -11 9 -2 10 3 -20 -20 -20 -20 -20 -20 -20 -20 -20 -20 -20 -20
-11 -2 13 -20 -20 18 20 21 31 18 4 -19 -20 -6 -20 -20 -20 -20 -20 -20 -20 -20 -20 -20 -20 -20 -19 -20 -20 -20 -19 -4 -20 -18 -18 -20 -20 -12 -10 -3 5 7 7 -9 -20 -20 -20 -20 -20 -20 -20 -20 -20 -20
9 11 29 26 15 29 29 31 6 -8 -7 -20 -17 -18 -20 -20 -20 -20 -20 -20 -20 -20 -20 -13 -9 -20 -20 -20 -20 -20 -20 -4 6 -20 -20 -19 -2 8 9 7 3 11 8 4 -20 -20 -20 -20 -20 -20 -20 -20 -20 -20
16 5 16 21 26 24 11 6 -1 -13 -20 -20 -20 -20 -20 -20 -20 -20 -18 -20 -20 -10 -14 -20 3 -20 -20 -20 -20 -20 -20 -20 -20 -20 -20 -20 -16 -12 2 8 6 4 -2 -17 -20 -20 -20 -20 -20 -20 -20 -20 -20 -20
-6 13 13 30 25 2 -12 -20 -20 -20 -20 -20 -20 -16 -20 -20 -20 -19 -7 -10 -20 -19 -20 -20 -20 -20 -20 -16 -17 -20 -20 -20 -20 -20 -20 -20 -20 -20 -11 4 7 6 -9 -20 -20 -20 -20 -20 -20 -20 -20 -20 -20 -20
-20 -20 1 17 22 20 7 -20 -20 -20 -20 -20 -20 -20 -20 -20 -20 -8 5 3 -12 -20 -20 -20 -20 -20 -20 -20 -20 -20 -20 -20 -20 -20 -20 -20 -13 -20 -0 7 -2 -20 -20 -20 -20 -20 -20 -20 -20 -20 -20 -20 -20 -20
-20 -20 -20 -19 4 13 8 2 -5 -20 -20 -20 -19 -7 -18 -20 -17 -18 -5 -17 -20 -20 -20 -20 -20 -20 -20 -20 -20 -20 -20 -20 -20 -18 -20 -20 -20 -20 -20 -20 -20 -20 -20 -20 -20 -20 -20 -20 -20 -20 -20 -20 -20 -20
-20 -20 -20 -20 -20 -18 1 3 8 5 -8 -20 -20 -13 -20 -20 -20 -19 -20 -20 -20 -20 -20 -20 -20 -20 -20 -20 -20 -20 -20 -20 -20 -20 -20 -20 -20 -20 -20 -20 -20 -20 -20 -20 -20 -20 -20 -3 -19 -20 -20 -20 -20 -20
-20 -17 -20 -20 -20 -20 -20 -12 -7 -18 -15 -20 -10 -16 -20 -20 -13 -9 -20 -20 -20 -20 -20 -20 -20 -20 -20 -20 -20 -20 -20 -20 -20 -20 -20 -20 -20 -20 -20 -20 -20 -20 -20 -20 -20 -20 -20 -20 -3 -20 -20 -20 -20 -20
-17 -18 -20 -20 -20 -20 -8 -15 -9 -6 -20 -5 -4 -19 -20 -20 -20 -20 -20 -20 -20 -20 -20 -20 -20 -20 -20 -20 -20 -20 -20 -20 -20 -20 -20 -20 -20 -20 -20 -20 -20 -20 -20 -20 -20 -20 -20 -20 -20 -20 -20 -20 -20 -20
-14 -6 -20 -20 -17 -5 5 5 -4 -17 -20 -20 -20 -20 -20 -20 -20 -20 -20 -20 -10 -13 -20 -20 -20 -20 -20 -20 -20 -20 -20 -20 -20 -20 -20 -20 -20 -20 -20 -20 -20 -20 -20 -20 -20 -20 -20 -20 -20 -20 -20 -20 -20 -20
-20 -20 -20 -20 -20 -15 -18 -20 -20 -20 -20 -20 -20 -20 -20 -20 -20 -20 -20 -20 -20 -20 -20 -20 -20 -20 -20 -20 -20 -20 -20 -20 -20 -20 -20 -20 -20 -20 -20 -20 -20 -20 -20 -20 -20 -20 -20 -20 -20 -20 -20 -20 -20 -20
-20 -20 -20 -20 -20 -20 -20 -20 -20 -20 -20 -20 -20 -20 -20 -20 -20 -20 -20 -20 -20 -20 -20 -20 -20 -20 -20 -20 -20 -20 -20 -20 -20 -20 -20 -20 -20 -20 -20 -20 -20 -12 -7 -20 -20 -20 -20 -20 -20 -20 -20 -20 -20 -20
-20 -20 -20 -20 -20 -20 -20 -20 -20 -20 -20 -20 -20 -20 -20 -20 -20 -20 -20 -20 -20 -20 -20 -20 -20 -20 -20 -20 -20 -20 -20 -20 -20 -20 -20 -20 -20 -20 -20 -20 -20 -20 -20 -20 -19 5 -1 -15 2 4 -18 -20 -20 -20
-20 -20 -20 -20 -20 -20 -20 -20 -20 -20 -20 -20 -20 -20 -20 -20 -20 -20 -20 -20 -20 -20 -20 -20 -20 -20 -20 -20 -20 -20 -20 -20 -20 -20 -20 -20 -20 -20 -20 -20 -20 -20 -20 -20 -20 -20 -12 -18 -20 -20 -20 -20 -20 -20
-20 -20 -20 -20 -20 -20 -20 -20 -20 -20 -20 -20 -20 -20 -20 -20 -20 -20 -20 -20 -20 -20 -20 -20 -20 -20 -20 -20 -20 -20 -20 -20 -20 -20 -20 -20 -20 -20 -20 -20 -20 -20 -20 -20 -20 -20 -20 -20 -20 -20 -20 -20 -20 -20
-20 -20 -20 -20 -20 -20 -20 -20 -20 -20 -20 -20 -20 -20 -20 -20 -20 -20 -20 -20 -20 -20 -20 -20 -20 -20 -20 -20 -20 -20 1 -20 -20 -20 -20 -20 -20 -20 -20 -14 -8 -13 -20 -20 -20 -20 -20 -20 -20 -20 -20 -20 -20 -20
-20 -20 -20 -20 -20 -20 -20 -20 -20 -20 -20 -20 -20 -20 -20 -20 -20 -20 -20 -20 -20 -20 -20 -20 -20 -20 -20 -20 -20 -20 -20 -20 -20 1 8 10 10 8 4 -3 3 2 -18 -20 -20 -20 -20 -20 -20 -20 -20 -20 -20 -20
Wind_Speed
15 15 15 15 15 14 14 14 15 15 13 20 16 21 21 22 22 11 4 9 7 4 5 7 7 6 2 2 5 4 4 1 2 3 4 5 4 4 1 4 7 8 8 5 3 2 10 5 4 7 5 2 2 2
15 15 15 15 16 16 17 16 16 16 15 16 13 22 17 22 23 21 3 5 3 3 5 2 5 3 7 8 7 4 3 5 6 3 2 1 2 1 4 3 2 3 7 6 9 9 4 5 5 3 4 4 3 2
16 17 17 17 17 17 17 17 17 17 17 17 17 17 15 19 14 22 5 8 5 3 4 1 6 4 4 4 5 6 3 3 3 3 3 2 4 4 4 7 2 5 3 3 4 7 10 7 5 4 4 5 3 3
18 18 18 18 18 19 18 18 18 18 17 17 18 18 18 20 18 19 5 7 5 4 5 5 1 3 1 4 4 3 6 4 5 1 2 2 2 2 3 2 3 3 4 5 7 7 7 12 6 2 5 6 6 4
18 18 18 17 17 17 18 18 18 18 18 18 16 16 16 15 15 10 4 7 9 9 6 3 2 1 1 5 8 6 6 5 3 2 3 3 1 2 1 2 4 7 11 8 10 13 7 8 3 2 0 2 6 7
21 21 21 20 20 20 19 18 18 18 18 17 16 15 15 15 14 3 2 3 8 3 3 5 3 4 4 4 5 6 6 3 3 4 2 3 3 3 4 5 10 14 13 13 9 3 4 4 3 3 3 4 3 6
23 23 23 23 23 22 22 21 19 19 18 17 17 17 15 14 1 3 3 2 11 3 1 2 2 3 2 4 3 2 2 1 2 2 4 3 2 4 2 6 5 11 10 6 3 4 6 5 5 1 3 3 4 3
24 23 22 22 22 22 21 21 20 18 15 15 15 13 12 10 7 5 2 8 10 5 1 0 2 1 1 2 2 1 2 1 1 3 2 3 2 1 8 10 4 4 2 2 6 4 2 1 1 3 1 2 2 4
23 23 23 22 23 23 22 20 19 17 13 10 7 5 4 5 3 3 10 12 2 2 4 3 5 4 2 2 2 1 2 2 1 2 2 4 3 10 10 4 2 5 6 4 2 3 2 2 5 3 2 2 2 4
22 22 22 22 22 22 22 20 17 16 7 4 4 4 3 1 9 6 3 0 2 1 1 3 2 3 3 2 2 2 0 2 3 4 3 4 7 4 3 1 3 2 1 3 3 4 2 4 4 3 6 3 3 3
21 21 23 23 23 22 20 19 15 8 11 2 2 1 0 5 2 3 2 1 1 2 1 3 4 6 4 4 3 4 4 3 3 3 4 4 7 4 4 5 4 3 2 4 3 2 2 3 1 2 3 4 3 2
24 26 26 27 25 24 22 19 12 5 4 6 6 4 2 3 2 3 1 2 0 3 0 3 1 1 3 2 3 4 4 3 3 3 2 6 4 3 3 5 6 5 4 2 2 2 2 3 1 1 2 3 1 2
28 28 29 29 27 20 17 14 12 25 15 3 4 4 4 2 1 3 2 3 2 1 1 1 2 2 2 2 2 3 4 3 5 1 6 5 4 5 4 3 6 7 7 5 5 4 4 4 4 4 4 4 3 5
29 31 30 25 14 10 12 10 33 17 5 3 5 2 4 2 4 3 2 3 2 1 3 3 2 1 1 2 2 3 2 3 1 2 6 3 3 4 4 3 4 5 7 7 6 5 6 6 5 5 6 5 5 6
31 32 26 10 16 6 11 31 24 4 3 4 4 4 5 3 1 2 1 2 2 3 3 3 2 1 1 2 1 3 2 4 5 4 2 1 2 2 4 4 5 6 6 5 4 4 4 5 6 7 6 5 6 6
34 23 5 25 19 3 30 19 5 2 2 4 3 3 1 2 1 2 3 1 1 3 2 2 2 2 1 2 2 4 4 5 1 2 1 1 2 3 4 5 5 4 4 4 5 5 6 6 6 4 6 8 7 6
24 7 22 9 13 29 20 5 2 2 3 4 2 1 3 1 3 2 3 3 2 3 2 3 4 5 2 2 2 0 0 2 3 2 4 5 4 4 5 5 5 5 5 6 5 7 7 5 5 7 9 6 5 5
4 12 17 17 10 5 2 3 2 3 2 2 2 2 3 3 2 3 2 2 3 2 2 2 3 2 1 2 2 3 2 2 3 4 4 4 5 5 5 5 6 5 6 6 6 7 7 7 7 5 5 5 4 5
4 7 14 18 8 2 3 4 3 3 0 1 2 2 3 4 4 4 4 5 4 4 3 4 5 3 2 3 3 3 3 3 1 2 3 5 5 5 5 5 5 6 5 4 5 5 4 5 4 4 3 3 2 3
5 10 14 10 11 3 4 3 2 4 2 0 2 3 3 3 2 3 7 7 4 4 7 5 3 2 2 2 2 2 4 4 1 2 2 3 4 5 6 4 4 4 3 4 4 8 5 5 5 6 5 6 4 5
7 7 8 5 3 4 4 2 3 1 1 3 1 2 3 3 4 5 5 5 6 5 3 3 2 2 3 2 3 3 4 5 3 2 2 2 3 4 4 4 4 4 4 4 4 5 6 4 3 4 4 5 4 4
3 10 3 5 3 3 4 3 2 1 3 2 3 3 3 3 3 3 3 7 4 2 2 2 2 2 3 4 4 6 5 6 8 6 10 6 3 3 3 4 4 3 3 3 3 3 3 4 2 4 5 4 6 5
8 6 5 6 4 5 2 3 3 4 3 2 2 3 3 3 2 2 5 3 1 2 1 1 2 4 5 4 5 8 9 7 5 5 5 3 3 3 3 3 3 2 2 2 2 2 2 7 6 4 4 5 4 4
9 7 6 4 5 2 2 4 3 3 3 3 3 3 3 2 2 4 4 2 1 1 2 1 2 2 2 4 5 5 5 5 3 2 3 3 3 3 3 2 2 2 1 2 2 2 3 2 8 4 4 3 5 3
5 9 6 7 4 5 5 4 4 3 3 4 3 3 2 2 4 4 3 2 2 3 4 4 4 3 2 2 2 2 3 4 4 4 1 2 3 2 2 2 2 1 1 2 3 4 3 3 2 3 4 4 6 7
9 5 5 6 5 5 4 3 5 6 4 3 4 2 3 3 5 3 2 2 2 2 3 4 3 1 2 2 2 2 3 2 3 3 1 2 1 1 1 2 2 3 0 1 3 3 5 4 4 6 6 9 14 9
6 5 3 3 3 3 3 4 4 4 5 4 3 5 3 5 3 2 1 2 2 2 2 2 3 2 2 3 2 2 2 1 1 4 6 4 2 3 3 2 3 4 4 5 3 3 6 6 6 7 7 7 5 5
3 5 5 5 4 4 3 4 4 4 3 4 2 5 3 3 3 1 1 1 1 1 1 1 2 2 2 2 3 4 4 3 5 4 2 2 1 3 3 3 3 14 7 2 6 5 6 6 8 9 9 8 7 4
4 5 2 5 4 5 5 3 3 2 3 2 2 3 2 2 2 1 1 1 2 2 2 3 2 4 3 3 2 3 1 1 4 4 3 4 4 5 2 3 5 6 4 3 14 13 9 9 7 5 4 1 5 6
4 3 4 3 5 3 3 1 2 2 1 1 1 2 2 2 1 1 1 2 3 0 3 3 2 1 2 1 4 6 2 3 4 4 3 4 5 5 7 8 8 8 4 3 6 6 12 6 7 5 6 5 4 5
1 3 5 3 2 3 3 2 3 1 2 2 2 4 1 1 2 1 1 2 1 1 2 3 3 2 2 3 2 3 6 3 4 6 6 6 8 8 9 9 9 7 6 6 4 4 4 5 5 7 8 8 10 12
3 3 4 3 2 3 3 3 1 2 4 4 3 1 1 1 1 2 3 3 1 2 6 2 2 4 4 4 3 4 12 6 6 6 9 8 9 11 12 10 8 7 4 4 4 4 6 8 7 8 9 11 10 10
3 2 2 3 4 4 3 3 5 3 4 3 2 0 0 0 3 2 1 2 4 3 3 4 4 4 6 7 6 6 9 4 10 18 23 23 25 21 12 6 0 1 3 5 5 6 9 10 10 11 11 12 13 13
Wind_Direction
338 340 336 329 335 334 325 334 343 317 344 6 299 249 239 229 216 172 196 179 161 198 261 194 173 140 105 152 156 172 95 279 61 166 162 220 200 219 123 197 175 172 161 193 168 216 270 164 130 168 207 197 207 289
329 327 327 325 323 327 321 321 327 311 323 333 307 4 290 236 225 188 181 175 128 165 242 259 230 203 182 184 137 191 176 155 178 130 240 105 218 111 177 247 305 247 191 184 190 210 247 211 214 240 169 210 215 193
320 317 317 314 313 314 312 311 314 312 315 312 311 335 302 5 280 197 172 138 102 172 290 328 218 188 133 161 165 134 281 165 190 176 160 197 220 126 182 236 158 244 160 204 52 259 243 254 266 227 208 245 280 239
316 314 314 313 310 307 308 304 305 304 307 306 308 310 298 335 298 342 191 172 124 134 192 250 105 178 177 167 140 124 135 91 102 116 123 168 196 140 237 232 180 193 118 193 259 283 302 274 222 256 259 251 259 237
305 302 301 302 304 302 299 297 297 299 301 299 296 293 308 305 324 328 251 198 194 174 186 207 88 233 307 164 151 131 133 126 133 117 146 221 195 155 122 43 242 187 208 215 240 249 213 251 229 201 309 246 233 217
308 306 304 300 296 294 294 293 292 290 290 294 298 302 293 307 310 327 10 180 216 315 137 170 56 31 57 106 105 132 130 120 138 147 188 215 210 156 225 237 244 221 230 230 232 146 194 218 255 208 225 262 267 222
313 310 308 306 302 296 289 288 288 287 288 293 297 293 297 295 266 204 249 166 180 64 82 97 129 16 58 78 71 69 24 119 124 159 221 192 178 179 245 234 213 224 225 225 181 104 290 185 238 280 239 285 308 270
311 308 304 300 297 295 294 294 286 282 283 289 300 317 318 325 326 275 243 179 127 111 318 210 61 66 332 114 103 147 133 118 180 199 140 164 134 146 251 242 277 322 15 277 214 225 206 174 270 263 284 345 323 282
311 307 303 300 300 296 288 283 289 281 277 291 347 343 56 34 355 323 86 106 38 120 181 135 157 181 178 102 102 13 148 127 180 200 213 151 183 225 238 241 270 208 199 214 88 81 53 215 270 275 247 300 227 263
306 305 303 298 292 290 292 285 272 283 256 103 44 47 5 331 343 345 2 113 309 182 179 102 128 142 154 114 123 138 332 202 177 228 127 216 254 277 304 331 344 48 146 123 84 300 306 284 244 258 224 216 223 239
313 318 314 311 310 300 285 284 254 257 110 90 96 112 268 346 10 29 354 134 313 305 172 119 178 153 194 131 148 196 173 174 211 225 168 248 265 256 1 29 358 352 308 272 250 204 183 184 259 319 316 252 236 248
317 317 309 303 297 289 286 275 230 161 140 159 120 91 55 43 21 68 296 316 222 246 330 135 150 57 109 168 156 161 171 156 236 113 102 262 271 337 9 356 334 19 4 358 335 122 91 95 95 100 28 355 281 230
318 316 314 307 297 280 270 271 172 127 107 66 57 61 72 314 4 177 237 288 318 295 198 107 72 102 137 233 77 142 159 179 110 86 231 239 326 351 333 344 355 23 35 24 22 26 72 66 51 49 32 350 52 64
325 322 319 314 306 270 258 247 139 126 100 113 139 155 175 212 236 203 192 203 246 135 129 104 85 71 72 130 136 129 101 109 138 243 239 302 332 317 345 353 60 14 33 29 17 14 57 68 55 36 32 19 34 45
327 323 311 322 349 305 265 142 137 76 115 145 121 203 197 203 161 158 154 157 146 119 114 100 67 106 107 101 67 97 97 245 209 237 290 302 354 34 36 26 52 47 37 13 5 20 20 43 60 52 27 24 39 41
328 321 344 329 314 261 137 118 64 94 89 110 88 102 55 93 250 226 190 162 182 127 92 67 117 97 206 122 84 212 161 220 281 7 29 71 57 55 61 52 48 52 42 28 42 45 46 39 39 35 45 42 41 46
332 345 317 332 104 121 115 80 79 79 142 128 258 97 148 168 176 171 119 193 174 102 159 120 135 205 93 108 232 136 289 17 3 30 37 51 67 58 50 55 46 43 38 33 36 42 47 29 31 43 43 12 29 34
329 338 10 76 73 60 47 40 86 93 106 0 136 160 90 35 74 56 40 85 101 162 135 214 133 144 176 196 110 31 44 61 32 36 31 33 43 48 56 65 56 46 53 48 52 54 41 37 41 33 16 5 18 21
325 5 7 1 346 65 59 32 24 100 168 21 69 54 66 94 59 11 24 18 57 25 43 22 54 59 66 38 10 0 349 337 93 52 40 33 36 46 46 53 64 58 56 41 60 62 63 52 40 10 13 15 18 333
318 16 1 31 17 57 63 10 24 83 111 258 39 57 61 52 75 41 32 21 35 41 44 43 54 50 14 12 346 310 319 301 144 99 70 50 35 48 39 35 45 53 53 32 48 66 37 37 26 9 357 18 19 348
3 341 6 25 60 70 83 23 41 118 108 79 340 62 76 52 41 30 31 355 58 33 61 45 58 54 32 5 353 333 2 9 2 15 98 91 42 44 40 27 35 48 54 42 46 29 42 32 4 360 359 354 346 320
288 347 42 10 74 65 75 12 86 54 62 77 63 48 46 49 42 32 39 42 55 3 6 18 30 33 44 25 3 12 355 23 28 37 47 55 40 28 29 16 23 34 49 40 27 19 7 346 5 25 1 349 351 329
8 25 38 15 71 39 21 343 65 12 75 64 49 63 42 56 61 67 70 66 92 359 62 69 64 71 77 49 47 37 21 20 34 24 18 34 46 27 15 28 11 10 3 19 18 0 357 5 352 35 351 349 343 341
31 43 33 46 22 40 349 30 33 40 50 51 59 65 41 83 94 60 72 60 27 7 42 80 163 127 93 54 48 36 12 358 2 18 22 15 360 353 1 7 350 343 357 327 357 9 5 355 1 352 343 328 326 314
68 1 26 4 3 4 34 31 12 37 62 34 78 61 52 71 70 65 73 85 32 24 20 46 54 47 67 85 72 55 41 21 0 331 14 51 330 312 358 14 11 10 13 31 6 349 331 322 319 315 310 308 297 298
67 10 40 357 2 21 357 37 26 15 14 56 43 1 61 69 66 61 59 29 49 23 10 10 360 65 56 33 349 352 349 350 328 295 323 28 331 245 290 332 336 311 302 52 321 305 307 304 294 295 289 292 306 324
53 356 11 34 347 328 57 37 21 44 45 24 350 346 67 68 74 84 110 24 57 34 20 10 13 23 358 340 334 342 324 1 207 261 285 281 244 212 185 191 274 266 305 292 262 242 268 277 275 275 272 277 258 251
59 22 32 1 47 10 57 43 31 24 357 344 282 34 72 53 107 89 63 71 40 10 73 60 35 351 321 342 325 325 315 349 315 313 320 319 264 261 232 245 245 291 309 280 266 250 243 253 262 266 270 273 280 264
43 340 359 29 38 44 38 36 17 14 350 316 0 64 78 47 18 30 61 22 353 347 9 346 325 359 338 334 329 306 284 89 60 30 359 302 326 302 258 272 272 274 258 243 304 314 293 275 293 322 350 280 293 287
323 3 79 45 68 20 264 152 258 290 328 7 313 88 67 28 297 13 4 20 56 2 252 244 275 50 276 334 309 323 276 187 180 155 195 252 244 265 292 289 286 282 271 244 263 277 301 322 314 331 319 305 293 287
324 50 69 60 114 249 235 286 302 266 20 37 338 93 120 290 309 229 219 174 156 254 300 321 323 228 236 281 264 304 311 290 222 243 250 259 262 262 264 263 262 262 255 247 242 251 257 291 268 275 277 273 275 296
21 79 118 96 280 289 18 48 352 63 347 49 351 35 33 71 231 245 197 151 177 293 342 34 255 277 229 246 239 231 265 273 269 261 266 267 270 264 264 266 267 252 224 234 243 255 272 271 272 269 272 274 272 267
51 55 50 74 28 10 328 57 21 13 22 38 4 345 235 199 223 273 297 188 200 223 257 259 252 258 262 265 254 278 303 262 279 298 311 312 306 305 311 322 197 149 233 244 252 254 261 261 264 264 262 261 264 264